Regional Weather Roundup
Issued by NWS

Home | Current Version | Previous Version | Text Only | Print | Product List | Glossary Off
Versions: 1 2 3 4 5 6 7 8 9 10 11 12 13 14 15 16 17 18 19 20 21 22 23 24 25 26 27 28 29 30 31 32 33 34 35 36 37 38 39 40 41 42 43 44 45 46 47 48 49 50

835
ASUS45 KTFX 241210
RWRMT
MONTANA REGIONAL WEATHER ROUNDUP
NATIONAL WEATHER SERVICE GREAT FALLS MT
600 AM MDT SUN JUL 24 2016

NOTE: "FAIR" INDICATES FEW OR NO CLOUDS BELOW 12000 FEET WITH NO
SIGNIFICANT WEATHER AND/OR OBSTRUCTIONS TO VISIBILITY.

MTZ001>007-043-241300-
WEST OF THE DIVIDE

CITY           SKY/WX    TMP DP  RH WIND       PRES   REMARKS
KALISPELL      CLEAR     43  43 100 VRB7      30.14R
MISSOULA       CLEAR     51  44  77 CALM      30.18R
BUTTE          CLEAR     41  34  76 SE5       30.25R
MULLAN PASS    CLEAR     50  38  63 N5        30.24S
ANACONDA         N/A     46  36  66 S6        30.22S
DEER LODGE       N/A     43  37  81 CALM      30.24R
EUREKA           N/A     48  45  87 CALM      30.14R
HAMILTON         N/A     50  39  66 CALM      30.18S
LIBBY            N/A     45  41  87 CALM      30.16S
PLAINS           N/A     47  40  76 CALM      30.15S
RONAN            N/A     45  41  86 CALM      30.18S
$$

MTZ008-052>055-241300-
SOUTHWEST MONTANA

CITY           SKY/WX    TMP DP  RH WIND       PRES   REMARKS
BOZEMAN        CLEAR     49  41  74 S3        30.19R
DILLON         CLEAR     47  37  68 W5        30.21R
W YELLOWSTONE  CLOUDY    32  30  93 CALM      30.30R
ENNIS          CLEAR     43  36  75 CALM      30.26R
THREE FORKS      N/A     45  37  73 CALM      30.15S
TWIN BRIDGES     N/A     49  33  54 E2        30.17R
$$

MTZ009-010-012-014-046-048-049-054-241300-
EAST SLOPES AND CENTRAL MONTANA

CITY           SKY/WX    TMP DP  RH WIND       PRES   REMARKS
CUT BANK       CLEAR     50  41  71 W13       30.10R
GREAT FALLS    CLEAR     48  39  71 SW9       30.12S
MALMSTROM AFB  CLEAR     47  41  81 S5        30.11S
HELENA         CLEAR     56  38  50 S5        30.16R
CHOTEAU          N/A     54  37  54 SW6       30.13S
CONRAD           N/A     44  42  93 W2        30.11R
$$

MTZ011-013-016-021-045-047-050-051-241300-
NORTH CENTRAL MONTANA

CITY           SKY/WX    TMP DP  RH WIND       PRES   REMARKS
HAVRE          CLEAR     51  49  92 SW7       30.05R
LEWISTOWN      CLEAR     48  42  80 E5        30.14R
N BAR RANCH      N/A     52  41  66 VRB3      30.17R
CHINOOK          N/A     52  52 100 CALM      30.04R
$$

MTZ017>020-022>027-061-062-241300-
NORTHEAST MONTANA

CITY           SKY/WX    TMP DP  RH WIND       PRES   REMARKS
GLASGOW        CLEAR     56  53  90 VRB6      30.03R
JORDAN           N/A     50  46  86 CALM      30.06R
SIDNEY         CLEAR     53  51  93 CALM      30.04R
WOLF POINT     CLEAR     53  50  89 CALM      30.04R
PLENTYWOOD       N/A     54  52  94 W5        30.03R
POPLAR           N/A     55  52  88 CALM      30.04R
SCOBEY           N/A     50  37  60 CALM      30.03R
$$

MTZ028>42-056>058-241300-
SOUTHCENTRAL AND SOUTHEAST MONTANA

CITY           SKY/WX    TMP DP  RH WIND       PRES   REMARKS
BAKER          CLEAR     54  50  86 S8        30.10R
BILLINGS       PTCLDY    57  50  77 SW8       30.10R
LIVINGSTON     CLEAR     46  37  71 W3        30.18R
MILES CITY     CLEAR     59  49  69 SE5       30.07R
EKALAKA          N/A     56  45  66 CALM      30.08F
FORSYTH          N/A     63  50  63 CALM      30.06S
LAUREL           N/A     53  47  80 SW5       30.09R
ROUNDUP          N/A     54  44  68 CALM      30.01R
$$

REGIONAL REPORTS...DAKOTAS

CITY           SKY/WX    TMP DP  RH WIND       PRES   REMARKS
WILLISTON      CLEAR     57  52  83 SE3       30.02R
MINOT          PTCLDY    65  55  70 W12       29.94R
DICKINSON      CLEAR     52  49  89 W8        30.05R
CROSBY           N/A     57  55  94 W9        30.01R
WATFORD CITY     N/A    N/A N/A N/A MISG        N/A
BISMARCK       CLEAR     61  56  83 NW7       30.00R
GRAND FORKS    PTCLDY    62  59  90 W6        29.82R
FARGO          CLEAR     64  59  83 W9        29.86R
BUFFALO SD       N/A     62  49  62 S5        30.01S
RAPID CITY     CLOUDY    61  53  75 NE10      30.12R
$$

REGIONAL REPORTS...WYOMING/IDAHO/WASHINGTON

CITY           SKY/WX    TMP DP  RH WIND       PRES   REMARKS
GILLETTE       CLOUDY    57  44  62 CALM      30.14R
SHERIDAN       CLOUDY    58  44  60 S8        30.10F
BUFFALO WY     CLOUDY    57  38  48 CALM      30.17S
CODY           CLEAR     57  37  47 SW5       30.18R
YELLOWSTONE LA   N/A     35  33  92 NW3       30.36R
IDAHO FALLS    CLEAR     42  36  79 W3        30.16R
SALMON         CLEAR     46  37  71 CALM      30.18R
BOISE          CLEAR     59  41  51 SW3       30.06R
SPOKANE        CLEAR     58  49  72 E5        30.12S
$$

REGIONAL REPORTS...ALBERTA

CITY           SKY/WX    TMP DP  RH WIND       PRES   REMARKS
EDMONTON       PTCLDY    54  50  87 SW6       29.95S
CALGARY        PTCLDY    54  43  66 VRB2      30.06S
LETHBRIDGE     CLEAR     52  46  82 W9        30.05R
MEDICINE HAT   CLEAR     52  50  93 SW5       30.00S
WATERTON GATE    N/A     55  43  62 S12         N/A
CARDSTON         N/A     54  43  66 SW8         N/A
MILK RIVER       N/A     50  43  76 NW10        N/A
ONEFOUR          N/A     52  45  76 NW8         N/A
$$

REGIONAL REPORTS...SASKATCHEWAN

CITY           SKY/WX    TMP DP  RH WIND       PRES   REMARKS
SWIFT CURRENT  MOCLDY    55  54  94 SW8       30.02R
REGINA         PTCLDY    55  54  94 W10       29.97R
SASKATOON      PTCLDY    50  50 100 W3        29.96R
CYPRESS HILLS    N/A     52  43  71 SW3         N/A
VAL MARIE        N/A     46  45  93 NE6         N/A
ROCKGLEN         N/A     54  50  87 W10         N/A
ASSINIBOIA       N/A     52  52 100 S3          N/A
$$




USA.gov is the U.S. government's official web portal to all federal, state and local government web resources and services.